Location: Augirein
(42.9320°N, 0.9181°E)
Time: 02:46:54
(UTC+00:00)

BREEZE-M DEB (TANK) - Pass Details

Date: 20 June 2021
Orbit: 335 x 16572 km, 49.3° (Epoch: 04 August)

Event Time Altitude Azimuth Distance (km) Brightness Sun altitude
Rises 01:59:24 0° 291° (WNW) 2,854 5.9 -18.0°
Reaches altitude 10° 02:02:14 10° 307° (NW) 1,461 4.6 -17.7°
Maximum altitude 02:04:28 23° 6° (N) 772 3.8 -17.5°
Drops below altitude 10° 02:06:30 10° 66° (ENE) 1,323 5.1 -17.3°
Sets 02:08:52 0° 83° (E) 2,478 6.2 -17.1°
